Date,TemperatureHighF,TemperatureAvgF,TemperatureLowF,DewpointHighF,DewpointAvgF,DewpointLowF,HumidityHigh,HumidityAvg,HumidityLow,PressureMaxIn,PressureMinIn,WindSpeedMaxMPH,WindSpeedAvgMPH,GustSpeedMaxMPH,PrecipitationSumIn
2013-4-1,66.3,58.2,53.2,52.3,49.9,48.5,85,74,57,30.18,30.00,4,1,9,0.00
2013-4-2,65.9,55.8,49.3,50.5,48.2,46.2,89,77,54,30.22,30.13,3,1,6,0.00
2013-4-3,65.2,53.7,42.0,52.0,47.6,40.9,97,82,57,30.19,29.92,2,0,6,0.00
2013-4-4,60.1,55.6,52.4,56.2,51.6,48.6,96,87,73,29.92,29.71,6,1,13,0.18
2013-4-5,59.1,53.9,50.1,51.1,49.1,47.5,93,84,68,29.96,29.83,7,3,17,0.22
2013-4-6,55.8,49.6,43.7,49.2,46.0,41.1,96,88,60,30.02,29.74,5,2,13,0.95
2013-4-7,52.8,47.6,41.5,48.3,43.1,39.1,96,85,64,29.98,29.57,10,3,24,0.30
2013-4-8,53.5,46.5,41.0,46.8,42.2,38.8,94,85,65,30.31,29.98,3,0,6,0.05
2013-4-9,58.3,48.5,37.4,47.2,42.3,36.6,98,81,55,30.39,30.26,1,0,4,0.00
2013-4-10,61.4,53.0,43.9,54.4,45.8,37.9,96,77,57,30.35,30.12,8,1,19,0.32
2013-4-11,56.8,46.6,35.5,44.2,39.7,34.5,97,78,58,30.37,30.20,2,0,5,0.00
2013-4-12,54.2,43.5,33.3,46.2,38.5,32.1,96,84,59,30.20,29.87,3,0,9,0.15
2013-4-13,52.7,45.0,37.0,41.6,36.9,31.7,96,75,51,30.10,29.93,7,2,17,0.15
2013-4-14,52.6,42.8,39.7,43.3,39.4,36.2,97,88,63,30.10,29.95,3,1,7,0.38
2013-4-15,56.8,46.5,36.2,42.4,38.7,34.1,98,77,44,30.19,29.97,4,1,9,0.00
2013-4-16,61.0,46.8,35.9,42.8,38.9,34.9,97,76,40,30.42,30.19,5,1,10,0.00
2013-4-17,61.1,47.3,32.1,45.5,38.1,31.1,97,73,39,30.52,30.41,2,0,6,0.01
2013-4-18,60.2,51.5,44.1,48.5,42.6,39.1,94,73,52,30.50,30.33,2,0,6,0.04
2013-4-19,56.9,52.1,48.9,52.6,48.6,45.6,95,88,76,30.33,30.16,6,2,14,0.37
2013-4-20,59.8,52.5,47.5,46.8,44.1,40.6,93,74,53,30.36,30.27,3,1,8,0.00
2013-4-21,53.2,48.8,42.0,48.6,44.0,40.4,96,84,72,30.33,30.26,2,0,8,0.03
2013-4-22,66.2,50.7,34.7,44.3,35.2,26.1,98,63,23,30.45,30.33,5,1,14,0.01
2013-4-23,72.0,52.8,34.9,41.2,34.6,26.6,91,56,20,30.40,30.16,2,0,6,0.00
2013-4-24,78.3,57.8,36.5,43.1,36.3,32.8,91,50,21,30.28,30.02,5,1,10,0.00
2013-4-25,79.4,59.5,39.7,48.1,41.7,36.5,90,56,27,30.16,30.03,3,0,9,0.00
2013-4-26,81.2,60.7,42.0,51.5,44.4,31.6,95,61,17,30.26,30.16,2,0,7,0.00
2013-4-27,76.2,58.4,42.1,47.5,43.1,37.6,89,61,28,30.27,30.19,4,0,6,0.00
2013-4-28,69.8,58.3,50.5,50.1,45.1,34.7,94,65,30,30.27,30.09,5,1,9,0.02
2013-4-29,61.7,52.4,40.8,48.8,39.9,29.9,94,65,35,30.24,30.06,7,1,17,0.14
2013-4-30,58.6,47.4,38.9,43.2,34.8,31.0,83,63,39,30.46,30.24,3,0,6,0.00